| time (UTC) | temp C | wind direction | speed KPH | gust KPH | rain 1hr cm | rain 24hr cm | rain mn cm | humidity % | barometer mb |
| 20260506163524 | 11 | 349 | 0.0 | 17.7 | 0.00 | 3.20 | 1.04 | 68 | 1019.6 |
| 20260506163023 | 11 | 4 | 0.0 | 17.7 | 0.00 | 3.20 | 1.04 | 71 | 1019.6 |
| 20260506162522 | 11 | 342 | 0.0 | 17.7 | 0.00 | 3.20 | 1.04 | 73 | 1019.4 |
| 20260506162022 | 11 | 21 | 3.2 | 14.5 | 0.00 | 3.20 | 1.04 | 71 | 1019.2 |
| 20260506161521 | 11 | 4 | 0.0 | 14.5 | 0.00 | 3.20 | 1.04 | 71 | 1019.2 |
| 20260506161022 | 12 | 343 | 1.6 | 9.7 | 0.00 | 3.20 | 1.04 | 69 | 1019.2 |
| 20260506160523 | 11 | 311 | 0.0 | 11.3 | 0.00 | 3.20 | 1.04 | 76 | 1019.2 |
| 20260506160022 | 11 | 8 | 0.0 | 14.5 | 0.00 | 3.20 | 1.04 | 75 | 1019.1 |
| 20260506155522 | 11 | 329 | 1.6 | 14.5 | 0.00 | 3.20 | 1.04 | 72 | 1019.0 |
| 20260506155023 | 11 | 307 | 0.0 | 16.1 | 0.00 | 3.20 | 1.04 | 76 | 1018.9 |
| 20260506154521 | 11 | 329 | 0.0 | 16.1 | 0.00 | 3.20 | 1.04 | 77 | 1018.9 |
| 20260506154022 | 10 | 350 | 0.0 | 16.1 | 0.00 | 3.20 | 1.04 | 73 | 1018.9 |
| 20260506153521 | 10 | 318 | 4.8 | 14.5 | 0.00 | 3.20 | 1.04 | 79 | 1018.8 |
| 20260506153022 | 10 | 339 | 0.0 | 17.7 | 0.00 | 3.20 | 1.04 | 80 | 1018.9 |
| 20260506152522 | 10 | 316 | 3.2 | 17.7 | 0.00 | 3.20 | 1.04 | 81 | 1018.9 |
| 20260506152021 | 10 | 321 | 3.2 | 17.7 | 0.08 | 3.20 | 1.04 | 80 | 1018.9 |
| 20260506151523 | 10 | 308 | 1.6 | 12.9 | 0.08 | 3.20 | 1.04 | 82 | 1018.9 |
| 20260506151021 | 10 | 309 | 3.2 | 11.3 | 0.08 | 3.20 | 1.04 | 81 | 1018.8 |
| 20260506150522 | 10 | 309 | 0.0 | 12.9 | 0.08 | 3.20 | 1.04 | 81 | 1018.5 |
| 20260506150020 | 10 | 359 | 3.2 | 12.9 | 0.08 | 3.20 | 1.04 | 83 | 1018.4 |
| 20260506145519 | 9 | 8 | 4.8 | 12.9 | 0.08 | 3.20 | 1.04 | 82 | 1018.4 |
| 20260506145019 | 9 | 356 | 3.2 | 12.9 | 0.08 | 3.20 | 1.04 | 81 | 1018.3 |
| 20260506144519 | 9 | 325 | 1.6 | 12.9 | 0.08 | 3.20 | 1.04 | 82 | 1018.2 |
| 20260506144019 | 9 | 305 | 0.0 | 12.9 | 0.08 | 3.20 | 1.04 | 84 | 1017.9 |
| 20260506143520 | 8 | 315 | 3.2 | 11.3 | 0.08 | 3.20 | 1.04 | 85 | 1017.7 |
| 20260506143019 | 8 | 3 | 4.8 | 12.9 | 0.08 | 3.20 | 1.04 | 86 | 1017.8 |
| 20260506142518 | 8 | 336 | 0.0 | 12.9 | 0.08 | 3.20 | 1.04 | 87 | 1017.8 |
| 20260506142019 | 8 | 305 | 0.0 | 12.9 | 0.00 | 3.12 | 0.97 | 85 | 1017.9 |
| 20260506141522 | 8 | 333 | 1.6 | 12.9 | 0.00 | 3.12 | 0.97 | 88 | 1017.9 |
| 20260506141018 | 8 | 302 | 0.0 | 0.0 | 0.00 | 3.12 | 0.97 | 89 | 1017.9 |
| 20260506140518 | 8 | 302 | 0.0 | 0.0 | 0.00 | 3.12 | 0.97 | 93 | 1017.7 |
| 20260506140019 | 7 | 302 | 0.0 | 0.0 | 0.00 | 3.12 | 0.97 | 95 | 1017.7 |
| 20260506135518 | 7 | 302 | 0.0 | 0.0 | 0.00 | 3.12 | 0.97 | 95 | 1017.7 |
| 20260506135019 | 7 | 302 | 0.0 | 0.0 | 0.00 | 3.12 | 0.97 | 95 | 1017.7 |
| 20260506134517 | 7 | 302 | 0.0 | 0.0 | 0.00 | 3.12 | 0.97 | 96 | 1017.8 |
| 20260506134017 | 7 | 302 | 0.0 | 0.0 | 0.00 | 3.12 | 0.97 | 97 | 1017.8 |
| 20260506133520 | 7 | 302 | 0.0 | 0.0 | 0.00 | 3.12 | 0.97 | 96 | 1017.8 |
| 20260506133017 | 7 | 302 | 0.0 | 0.0 | 0.00 | 3.12 | 0.97 | 97 | 1017.7 |
| 20260506132518 | 7 | 302 | 0.0 | 0.0 | 0.00 | 3.12 | 0.97 | 97 | 1017.7 |
| 20260506132019 | 7 | 302 | 0.0 | 0.0 | 0.00 | 3.12 | 0.97 | 97 | 1017.7 |
| 20260506131516 | 7 | 302 | 0.0 | 4.8 | 0.00 | 3.12 | 0.97 | 98 | 1017.7 |
| 20260506131019 | 7 | 302 | 0.0 | 4.8 | 0.00 | 3.12 | 0.97 | 98 | 1017.5 |
| 20260506130516 | 7 | 302 | 0.0 | 4.8 | 0.00 | 3.12 | 0.97 | 98 | 1017.4 |
| 20260506130016 | 6 | 284 | 0.0 | 0.0 | 0.00 | 3.12 | 0.97 | 98 | 1017.3 |
| 20260506125518 | 6 | 284 | 0.0 | 4.8 | 0.00 | 3.12 | 0.97 | 98 | 1017.2 |
| 20260506125015 | 6 | 284 | 0.0 | 4.8 | 0.00 | 3.12 | 0.97 | 98 | 1017.0 |
| 20260506124518 | 6 | 284 | 0.0 | 4.8 | 0.00 | 3.12 | 0.97 | 98 | 1017.3 |
| 20260506124015 | 6 | 312 | 0.0 | 11.3 | 0.00 | 3.12 | 0.97 | 98 | 1017.2 |
| 20260506123515 | 6 | 302 | 0.0 | 11.3 | 0.00 | 3.12 | 0.97 | 99 | 1016.9 |
| 20260506123017 | 6 | 15 | 4.8 | 11.3 | 0.00 | 3.12 | 0.97 | 99 | 1016.8 |
| 20260506122515 | 6 | 339 | 4.8 | 9.7 | 0.00 | 3.12 | 0.97 | 99 | 1016.8 |
| 20260506122015 | 6 | 338 | 3.2 | 9.7 | 0.00 | 3.12 | 0.97 | 99 | 1016.7 |
| 20260506121521 | 6 | 300 | 3.2 | 9.7 | 0.00 | 3.12 | 0.97 | 99 | 1016.7 |
| 20260506121014 | 6 | 316 | 1.6 | 6.4 | 0.00 | 3.12 | 0.97 | 99 | 1016.6 |
| 20260506120517 | 6 | 13 | 1.6 | 8.0 | 0.00 | 3.12 | 0.97 | 99 | 1016.5 |
| 20260506120014 | 6 | 293 | 6.4 | 8.0 | 0.00 | 3.12 | 0.97 | 99 | 1016.3 |
| 20260506115515 | 6 | 332 | 3.2 | 8.0 | 0.00 | 3.12 | 0.97 | 99 | 1016.4 |
| 20260506115015 | 6 | 304 | 0.0 | 3.2 | 0.00 | 3.12 | 0.97 | 99 | 1016.4 |
| 20260506114513 | 6 | 309 | 0.0 | 0.0 | 0.00 | 3.12 | 0.97 | 99 | 1016.3 |
| 20260506114016 | 6 | 309 | 0.0 | 0.0 | 0.00 | 3.12 | 0.97 | 99 | 1016.4 |
| 20260506113514 | 6 | 309 | 0.0 | 0.0 | 0.00 | 3.12 | 0.97 | 99 | 1016.4 |
| 20260506113013 | 6 | 309 | 0.0 | 4.8 | 0.00 | 3.12 | 0.97 | 99 | 1016.4 |
| 20260506112516 | 6 | 309 | 0.0 | 4.8 | 0.00 | 3.12 | 0.97 | 99 | 1016.6 |
| 20260506112013 | 6 | 309 | 0.0 | 4.8 | 0.00 | 3.12 | 0.97 | 99 | 1016.6 |
| 20260506111513 | 6 | 315 | 4.8 | 4.8 | 0.00 | 3.12 | 0.97 | 99 | 1016.6 |
| 20260506111015 | 6 | 318 | 0.0 | 3.2 | 0.00 | 3.12 | 0.97 | 99 | 1016.2 |
| 20260506110512 | 6 | 24 | 0.0 | 4.8 | 0.00 | 3.12 | 0.97 | 99 | 1015.7 |
| 20260506110013 | 6 | 24 | 0.0 | 4.8 | 0.00 | 3.12 | 0.97 | 99 | 1015.4 |
| 20260506105513 | 6 | 21 | 0.0 | 6.4 | 0.00 | 3.12 | 0.97 | 99 | 1015.4 |
| 20260506105012 | 6 | 335 | 0.0 | 8.0 | 0.00 | 3.12 | 0.97 | 99 | 1015.7 |
| 20260506104513 | 6 | 330 | 4.8 | 9.7 | 0.00 | 3.15 | 0.97 | 99 | 1016.0 |
| 20260506104014 | 6 | 312 | 1.6 | 11.3 | 0.00 | 3.15 | 0.97 | 99 | 1015.8 |
| 20260506103511 | 6 | 322 | 6.4 | 11.3 | 0.00 | 3.15 | 0.97 | 99 | 1015.6 |
| 20260506103011 | 6 | 335 | 4.8 | 11.3 | 0.00 | 3.15 | 0.97 | 99 | 1015.4 |
| 20260506102514 | 6 | 263 | 1.6 | 8.0 | 0.00 | 3.15 | 0.97 | 99 | 1015.6 |
| 20260506102011 | 6 | 340 | 1.6 | 9.7 | 0.03 | 3.15 | 0.97 | 99 | 1015.3 |
| 20260506101511 | 6 | 322 | 0.0 | 9.7 | 0.03 | 3.15 | 0.97 | 99 | 1015.4 |
| 20260506101013 | 6 | 14 | 3.2 | 9.7 | 0.03 | 3.15 | 0.97 | 99 | 1014.9 |
| 20260506100511 | 6 | 309 | 3.2 | 8.0 | 0.03 | 3.15 | 0.97 | 99 | 1015.0 |
| 20260506100010 | 6 | 11 | 0.0 | 9.7 | 0.03 | 3.15 | 0.97 | 99 | 1014.8 |
| 20260506095510 | 6 | 11 | 0.0 | 9.7 | 0.05 | 3.15 | 0.97 | 99 | 1014.6 |
| 20260506095011 | 6 | 314 | 0.0 | 9.7 | 0.05 | 3.15 | 0.97 | 99 | 1014.6 |
| 20260506094511 | 6 | 10 | 0.0 | 6.4 | 0.05 | 3.15 | 0.97 | 99 | 1014.5 |
| 20260506094010 | 6 | 23 | 1.6 | 6.4 | 0.05 | 3.15 | 0.97 | 99 | 1014.3 |
| 20260506093510 | 6 | 25 | 0.0 | 6.4 | 0.08 | 3.15 | 0.97 | 99 | 1014.5 |
| 20260506093012 | 6 | 346 | 0.0 | 6.4 | 0.08 | 3.15 | 0.97 | 99 | 1014.6 |
| 20260506092510 | 6 | 6 | 0.0 | 8.0 | 0.08 | 3.15 | 0.97 | 99 | 1014.7 |
| 20260506092026 | 6 | 6 | 0.0 | 11.3 | 0.05 | 3.12 | 0.94 | 99 | 1015.0 |
| 20260506091511 | 6 | 23 | 4.8 | 11.3 | 0.05 | 3.12 | 0.94 | 99 | 1015.2 |
| 20260506091009 | 6 | 4 | 6.4 | 11.3 | 0.05 | 3.12 | 0.94 | 99 | 1015.4 |
| 20260506090509 | 7 | 349 | 4.8 | 9.7 | 0.05 | 3.12 | 0.94 | 99 | 1015.3 |
| 20260506090011 | 7 | 336 | 3.2 | 8.0 | 0.08 | 3.12 | 0.94 | 99 | 1015.3 |
| 20260506085509 | 6 | 335 | 0.0 | 3.2 | 0.05 | 3.10 | 0.91 | 99 | 1015.3 |
| 20260506085008 | 7 | 335 | 0.0 | 3.2 | 0.05 | 3.10 | 0.91 | 99 | 1015.3 |
| 20260506084511 | 7 | 319 | 0.0 | 4.8 | 0.08 | 3.10 | 0.91 | 99 | 1015.3 |
| 20260506084016 | 7 | 11 | 0.0 | 9.7 | 0.08 | 3.10 | 0.91 | 99 | 1015.2 |
| 20260506083508 | 7 | 11 | 1.6 | 9.7 | 0.08 | 3.07 | 0.89 | 99 | 1015.3 |
| 20260506083009 | 7 | 335 | 3.2 | 9.7 | 0.08 | 3.07 | 0.89 | 100 | 1015.2 |
| 20260506082511 | 7 | 342 | 0.0 | 4.8 | 0.10 | 3.07 | 0.89 | 99 | 1015.1 |
| 20260506082008 | 7 | 30 | 0.0 | 4.8 | 0.13 | 3.07 | 0.89 | 100 | 1015.2 |
| 20260506081518 | 7 | 18 | 0.0 | 6.4 | 0.18 | 3.07 | 0.89 | 100 | 1015.0 |
| 20260506081008 | 6 | 17 | 3.2 | 6.4 | 0.20 | 3.07 | 0.89 | 100 | 1015.0 |
| 20260506080507 | 7 | 7 | 1.6 | 8.0 | 0.23 | 3.07 | 0.89 | 100 | 1015.0 |
| 20260506073511 | 6 | 8 | 4.8 | 11.3 | 0.28 | 3.00 | 0.81 | 99 | 1015.3 |
| 20260506073006 | 7 | 18 | 1.6 | 11.3 | 0.30 | 3.00 | 0.81 | 99 | 1015.1 |
| 20260506072507 | 6 | 27 | 4.8 | 11.3 | 0.30 | 2.97 | 0.79 | 99 | 1015.0 |
| 20260506072008 | 7 | 13 | 6.4 | 11.3 | 0.30 | 2.95 | 0.76 | 99 | 1015.0 |
| 20260506071505 | 7 | 31 | 6.4 | 8.0 | 0.28 | 2.90 | 0.71 | 99 | 1015.0 |
| 20260506071007 | 7 | 25 | 0.0 | 8.0 | 0.28 | 2.87 | 0.69 | 99 | 1015.0 |
| 20260506070507 | 6 | 4 | 1.6 | 9.7 | 0.25 | 2.84 | 0.66 | 99 | 1015.0 |
| 20260506062505 | 7 | 7 | 4.8 | 16.1 | 0.25 | 2.67 | 0.48 | 99 | 1014.8 |
| 20260506062004 | 7 | 15 | 8.0 | 16.1 | 0.23 | 2.64 | 0.46 | 99 | 1014.9 |
| 20260506061505 | 7 | 13 | 1.6 | 16.1 | 0.28 | 2.62 | 0.43 | 99 | 1014.9 |
| 20260506061004 | 7 | 11 | 3.2 | 16.1 | 0.25 | 2.59 | 0.41 | 99 | 1014.9 |
| 20260506060505 | 8 | 8 | 12.9 | 16.1 | 0.25 | 2.59 | 0.41 | 99 | 1014.9 |
| 20260506051032 | 8 | 13 | 0.0 | 9.7 | 0.15 | 2.34 | 0.15 | 99 | 1008.8 |
| 20260506050532 | 8 | 44 | 3.2 | 9.7 | 0.15 | 2.34 | 0.15 | 99 | 1008.9 |
| 20260506045031 | 8 | 342 | 1.6 | 8.0 | 0.18 | 2.31 | 0.13 | 99 | 1009.0 |
| 20260506044532 | 8 | 4 | 0.0 | 8.0 | 0.18 | 2.31 | 0.13 | 99 | 1008.7 |
| 20260506044037 | 8 | 11 | 0.0 | 9.7 | 0.18 | 2.29 | 0.10 | 99 | 1008.8 |
| 20260506043531 | 8 | 350 | 4.8 | 9.7 | 0.20 | 2.29 | 0.10 | 99 | 1008.8 |
| 20260506043031 | 8 | 44 | 3.2 | 9.7 | 0.18 | 2.26 | 0.08 | 99 | 1008.8 |
| 20260506042536 | 8 | 58 | 6.4 | 4.8 | 0.18 | 2.26 | 0.08 | 99 | 1008.8 |
| 20260506042031 | 9 | 3 | 0.0 | 4.8 | 0.13 | 2.21 | 0.03 | 99 | 1008.8 |
| 20260506041531 | 8 | 31 | 0.0 | 4.8 | 0.13 | 2.21 | 0.03 | 99 | 1008.9 |
| 20260506041036 | 8 | 8 | 0.0 | 12.9 | 0.10 | 2.18 | 0.00 | 99 | 1008.9 |
| 20260506040530 | 8 | 8 | 0.0 | 12.9 | 0.10 | 2.18 | 0.00 | 99 | 1008.9 |
| 20260506040031 | 9 | 3 | 0.0 | 12.9 | 0.10 | 2.18 | 0.00 | 99 | 1008.9 |
| 20260506035530 | 9 | 14 | 6.4 | 6.4 | 0.10 | 2.18 | 2.18 | 99 | 1008.9 |
| 20260506035032 | 9 | 20 | 0.0 | 4.8 | 0.05 | 2.13 | 2.13 | 99 | 1009.0 |
| 20260506034529 | 8 | 17 | 0.0 | 4.8 | 0.05 | 2.13 | 2.13 | 99 | 1009.0 |
| 20260506034030 | 9 | 354 | 0.0 | 9.7 | 0.03 | 2.11 | 2.11 | 99 | 1009.2 |
| 20260506033531 | 9 | 1 | 0.0 | 9.7 | 0.00 | 2.08 | 2.08 | 99 | 1009.1 |
| 20260506033029 | 9 | 335 | 1.6 | 9.7 | 0.00 | 2.08 | 2.08 | 99 | 1009.3 |
| 20260506032531 | 9 | 21 | 1.6 | 9.7 | 0.00 | 2.08 | 2.08 | 99 | 1009.4 |
| 20260506032029 | 9 | 328 | 4.8 | 11.3 | 0.03 | 2.08 | 2.08 | 99 | 1009.4 |
| 20260506031529 | 9 | 350 | 4.8 | 12.9 | 0.03 | 2.08 | 2.08 | 99 | 1009.6 |
| 20260506031035 | 9 | 342 | 1.6 | 12.9 | 0.08 | 2.08 | 2.08 | 99 | 1009.6 |
| 20260506030528 | 9 | 333 | 3.2 | 12.9 | 0.10 | 2.08 | 2.08 | 99 | 1009.7 |
| 20260506030030 | 9 | 11 | 9.7 | 9.7 | 0.13 | 2.08 | 2.08 | 99 | 1009.8 |
| 20260506025529 | 9 | 319 | 3.2 | 9.7 | 0.15 | 2.08 | 2.08 | 99 | 1009.8 |
| 20260506025028 | 9 | 349 | 1.6 | 11.3 | 0.18 | 2.08 | 2.08 | 99 | 1009.8 |
| 20260506024531 | 9 | 350 | 3.2 | 11.3 | 0.18 | 2.08 | 2.08 | 99 | 1009.7 |
| 20260506024028 | 9 | 20 | 4.8 | 11.3 | 0.20 | 2.08 | 2.08 | 99 | 1009.7 |
| 20260506023527 | 10 | 7 | 6.4 | 14.5 | 0.20 | 2.08 | 2.08 | 99 | 1009.6 |
| 20260506023034 | 10 | 11 | 0.0 | 14.5 | 0.23 | 2.08 | 2.08 | 99 | 1010.0 |
| 20260506022527 | 10 | 21 | 0.0 | 14.5 | 0.25 | 2.08 | 2.08 | 99 | 1009.6 |
| 20260506022030 | 10 | 31 | 9.7 | 11.3 | 0.23 | 2.06 | 2.06 | 99 | 1009.7 |
| 20260506021527 | 10 | 10 | 0.0 | 8.0 | 0.25 | 2.06 | 2.06 | 99 | 1009.7 |
| 20260506021030 | 10 | 325 | 0.0 | 3.2 | 0.25 | 2.01 | 2.01 | 99 | 1009.7 |
| 20260506020527 | 10 | 17 | 1.6 | 6.4 | 0.28 | 1.98 | 1.98 | 99 | 1009.6 |
| 20260506020026 | 10 | 30 | 1.6 | 6.4 | 0.30 | 1.96 | 1.96 | 99 | 1009.3 |
| 20260506015528 | 10 | 25 | 1.6 | 8.0 | 0.36 | 1.93 | 1.93 | 99 | 1009.2 |
| 20260506015026 | 10 | 359 | 3.2 | 8.0 | 0.38 | 1.91 | 1.91 | 99 | 1009.3 |
| 20260506014528 | 10 | 41 | 3.2 | 8.0 | 0.43 | 1.91 | 1.91 | 99 | 1009.2 |
| 20260506014028 | 10 | 250 | 0.0 | 8.0 | 0.48 | 1.88 | 1.88 | 99 | 1009.1 |
| 20260506013527 | 10 | 149 | 6.4 | 11.3 | 0.64 | 1.88 | 1.88 | 99 | 1008.9 |
| 20260506013025 | 10 | 350 | 3.2 | 11.3 | 0.61 | 1.85 | 1.85 | 99 | 1009.0 |
| 20260506012528 | 10 | 11 | 4.8 | 14.5 | 0.58 | 1.83 | 1.83 | 99 | 1008.9 |
| 20260506012025 | 10 | 3 | 4.8 | 14.5 | 0.58 | 1.83 | 1.83 | 99 | 1008.8 |
| 20260506011531 | 10 | 14 | 3.2 | 14.5 | 1.02 | 1.80 | 1.80 | 98 | 1008.8 |
| 20260506011024 | 10 | 30 | 3.2 | 12.9 | 0.97 | 1.75 | 1.75 | 98 | 1008.8 |
| 20260506010527 | 11 | 359 | 4.8 | 12.9 | 0.91 | 1.70 | 1.70 | 98 | 1008.8 |
| 20260506010028 | 11 | 345 | 3.2 | 11.3 | 0.86 | 1.65 | 1.65 | 98 | 1008.8 |
| 20260506005530 | 11 | 328 | 3.2 | 11.3 | 0.79 | 1.57 | 1.57 | 98 | 1008.8 |
| 20260506005024 | 11 | 304 | 9.7 | 9.7 | 0.74 | 1.52 | 1.52 | 98 | 1008.8 |
| 20260506004528 | 11 | 359 | 4.8 | 9.7 | 0.69 | 1.47 | 1.47 | 98 | 1008.5 |
| 20260506004024 | 11 | 0 | 0.0 | 9.7 | 0.61 | 1.40 | 1.40 | 98 | 1008.4 |
| 20260506003525 | 11 | 318 | 0.0 | 9.7 | 0.46 | 1.24 | 1.24 | 98 | 1008.5 |
| 20260506003027 | 11 | 347 | 4.8 | 6.4 | 0.53 | 1.24 | 1.24 | 98 | 1008.4 |
| 20260506002526 | 11 | 342 | 1.6 | 8.0 | 0.61 | 1.24 | 1.24 | 98 | 1008.2 |
| 20260506002023 | 11 | 77 | 1.6 | 8.0 | 0.61 | 1.24 | 1.24 | 98 | 1008.1 |
| 20260506001527 | 11 | 77 | 4.8 | 8.0 | 0.15 | 0.79 | 0.79 | 98 | 1008.1 |
| 20260506001023 | 11 | 101 | 1.6 | 8.0 | 0.15 | 0.79 | 0.79 | 98 | 1008.1 |
| 20260506000526 | 11 | 18 | 0.0 | 6.4 | 0.15 | 0.79 | 0.79 | 98 | 1008.1 |
| 20260506000022 | 11 | 18 | 0.0 | 8.0 | 0.15 | 0.79 | 0.79 | 98 | 1008.2 |
| 20260505235531 | 12 | 58 | 3.2 | 12.9 | 0.15 | 0.79 | 0.79 | 98 | 1008.2 |
| 20260505235022 | 12 | 340 | 1.6 | 12.9 | 0.18 | 0.79 | 0.79 | 97 | 1008.4 |
| 20260505234522 | 12 | 11 | 4.8 | 12.9 | 0.18 | 0.79 | 0.79 | 97 | 1008.4 |
| 20260505234023 | 13 | 359 | 6.4 | 11.3 | 0.18 | 0.79 | 0.79 | 97 | 1008.6 |
| 20260505233522 | 13 | 329 | 4.8 | 4.8 | 0.20 | 0.79 | 0.79 | 98 | 1008.3 |
| 20260505233030 | 13 | 318 | 3.2 | 4.8 | 0.15 | 0.71 | 0.71 | 97 | 1008.4 |
| 20260505232522 | 13 | 318 | 0.0 | 0.0 | 0.10 | 0.64 | 0.64 | 97 | 1008.2 |
| 20260505232025 | 13 | 318 | 0.0 | 3.2 | 0.13 | 0.64 | 0.64 | 97 | 1008.3 |
| 20260505231522 | 13 | 318 | 0.0 | 8.0 | 0.15 | 0.64 | 0.64 | 97 | 1008.4 |
| 20260505231022 | 13 | 318 | 0.0 | 8.0 | 0.20 | 0.64 | 0.64 | 97 | 1008.5 |
| 20260505230521 | 13 | 328 | 1.6 | 8.0 | 0.25 | 0.64 | 0.64 | 97 | 1008.4 |
| 20260505230021 | 13 | 14 | 3.2 | 3.2 | 0.36 | 0.64 | 0.64 | 97 | 1008.4 |
| 20260505225525 | 13 | 290 | 0.0 | 4.8 | 0.51 | 0.64 | 0.64 | 97 | 1008.5 |
| 20260505225020 | 13 | 290 | 0.0 | 4.8 | 0.51 | 0.61 | 0.61 | 97 | 1008.6 |
| 20260505224521 | 13 | 290 | 0.0 | 4.8 | 0.51 | 0.61 | 0.61 | 97 | 1008.6 |
| 20260505224022 | 13 | 336 | 0.0 | 3.2 | 0.51 | 0.61 | 0.61 | 97 | 1008.7 |
| 20260505223522 | 13 | 294 | 0.0 | 4.8 | 0.48 | 0.58 | 0.58 | 97 | 1008.7 |
| 20260505223020 | 14 | 298 | 1.6 | 4.8 | 0.46 | 0.56 | 0.56 | 97 | 1008.8 |
| 20260505222521 | 14 | 304 | 0.0 | 8.0 | 0.43 | 0.53 | 0.53 | 97 | 1008.7 |
| 20260505222021 | 14 | 288 | 4.8 | 11.3 | 0.41 | 0.51 | 0.51 | 97 | 1008.7 |
| 20260505221521 | 14 | 325 | 1.6 | 11.3 | 0.38 | 0.48 | 0.48 | 97 | 1008.8 |
| 20260505221020 | 14 | 293 | 3.2 | 11.3 | 0.33 | 0.43 | 0.43 | 97 | 1008.7 |
| 20260505220521 | 14 | 322 | 8.0 | 11.3 | 0.28 | 0.38 | 0.38 | 96 | 1008.9 |
| 20260505220019 | 14 | 319 | 3.2 | 9.7 | 0.18 | 0.28 | 0.28 | 96 | 1008.9 |
| 20260505215523 | 15 | 311 | 1.6 | 6.4 | 0.03 | 0.13 | 0.13 | 96 | 1008.5 |
| 20260505215019 | 15 | 297 | 0.0 | 0.0 | 0.00 | 0.10 | 0.10 | 96 | 1008.2 |
| 20260505214525 | 15 | 297 | 0.0 | 0.0 | 0.00 | 0.10 | 0.10 | 96 | 1008.1 |
| 20260505214018 | 15 | 297 | 0.0 | 0.0 | 0.00 | 0.10 | 0.10 | 96 | 1008.0 |
| 20260505213521 | 15 | 297 | 0.0 | 0.0 | 0.00 | 0.10 | 0.10 | 96 | 1008.1 |
| 20260505213018 | 15 | 297 | 0.0 | 0.0 | 0.00 | 0.10 | 0.10 | 96 | 1008.1 |
| 20260505212527 | 15 | 297 | 0.0 | 3.2 | 0.00 | 0.10 | 0.10 | 96 | 1008.2 |
| 20260505212018 | 15 | 297 | 0.0 | 3.2 | 0.00 | 0.10 | 0.10 | 96 | 1008.3 |
| 20260505211522 | 15 | 297 | 0.0 | 3.2 | 0.03 | 0.10 | 0.10 | 96 | 1008.3 |
| 20260505211018 | 15 | 304 | 0.0 | 3.2 | 0.03 | 0.10 | 0.10 | 96 | 1008.3 |
| 20260505210518 | 15 | 316 | 0.0 | 3.2 | 0.03 | 0.10 | 0.10 | 96 | 1008.3 |
| 20260505210047 | 15 | 316 | 0.0 | 4.8 | 0.03 | 0.10 | 0.10 | 96 | 1008.3 |
| 20260505205517 | 15 | 316 | 0.0 | 4.8 | 0.03 | 0.10 | 0.10 | 96 | 1008.4 |
| 20260505205020 | 15 | 301 | 0.0 | 4.8 | 0.03 | 0.10 | 0.10 | 96 | 1008.5 |
| 20260505204517 | 15 | 307 | 3.2 | 4.8 | 0.05 | 0.10 | 0.10 | 95 | 1008.5 |
| 20260505204025 | 15 | 305 | 0.0 | 4.8 | 0.05 | 0.10 | 0.10 | 95 | 1008.5 |
| 20260505203519 | 15 | 281 | 0.0 | 4.8 | 0.08 | 0.10 | 0.10 | 95 | 1008.6 |
| 20260505203022 | 15 | 311 | 0.0 | 11.3 | 0.08 | 0.10 | 0.10 | 95 | 1008.5 |
| 20260505202519 | 15 | 319 | 0.0 | 11.3 | 0.08 | 0.10 | 0.10 | 95 | 1008.6 |
| 20260505202047 | 15 | 285 | 3.2 | 11.3 | 0.08 | 0.10 | 0.10 | 95 | 1008.6 |
| 20260505201518 | 15 | 347 | 4.8 | 9.7 | 0.05 | 0.08 | 0.08 | 94 | 1008.6 |
| 20260505201020 | 15 | 312 | 8.0 | 9.7 | 0.05 | 0.08 | 0.08 | 94 | 1008.8 |
| 20260505200520 | 15 | 291 | 3.2 | 9.7 | 0.05 | 0.08 | 0.08 | 93 | 1008.7 |
| 20260505200046 | 15 | 311 | 4.8 | 8.0 | 0.05 | 0.08 | 0.08 | 93 | 1008.6 |
| 20260505195516 | 15 | 301 | 1.6 | 9.7 | 0.05 | 0.08 | 0.08 | 92 | 1008.7 |
| 20260505195016 | 15 | 304 | 1.6 | 11.3 | 0.05 | 0.08 | 0.08 | 91 | 1008.8 |
| 20260505194048 | 16 | 346 | 0.0 | 12.9 | 0.03 | 0.05 | 0.05 | 88 | 1008.8 |
| 20260505193545 | 16 | 326 | 9.7 | 12.9 | 0.00 | 0.03 | 0.03 | 87 | 1009.0 |
| 20260505193050 | 16 | 326 | 4.8 | 12.9 | 0.00 | 0.03 | 0.03 | 86 | 1008.9 |
| 20260505192544 | 16 | 291 | 4.8 | 12.9 | 0.00 | 0.03 | 0.03 | 85 | 1008.8 |
| 20260505192047 | 16 | 304 | 3.2 | 14.5 | 0.00 | 0.03 | 0.03 | 85 | 1008.8 |
| 20260505191544 | 16 | 301 | 0.0 | 14.5 | 0.00 | 0.03 | 0.03 | 85 | 1008.7 |
| 20260505191046 | 16 | 307 | 8.0 | 14.5 | 0.00 | 0.03 | 0.03 | 84 | 1008.8 |
| 20260505190544 | 16 | 300 | 4.8 | 14.5 | 0.00 | 0.03 | 0.03 | 85 | 1008.8 |
| 20260505190044 | 16 | 316 | 9.7 | 14.5 | 0.00 | 0.03 | 0.03 | 84 | 1008.8 |
| 20260505185546 | 17 | 326 | 1.6 | 11.3 | 0.00 | 0.03 | 0.03 | 83 | 1008.9 |
| 20260505185043 | 17 | 335 | 4.8 | 8.0 | 0.00 | 0.03 | 0.03 | 82 | 1008.8 |
| 20260505184547 | 17 | 270 | 0.0 | 6.4 | 0.00 | 0.03 | 0.03 | 80 | 1008.7 |
| 20260505184043 | 18 | 291 | 0.0 | 8.0 | 0.00 | 0.03 | 0.03 | 76 | 1008.8 |
| 20260505183546 | 18 | 277 | 1.6 | 8.0 | 0.00 | 0.03 | 0.03 | 73 | 1008.6 |
| 20260505183043 | 18 | 248 | 0.0 | 8.0 | 0.00 | 0.03 | 0.03 | 72 | 1008.7 |
| 20260505182544 | 18 | 297 | 0.0 | 6.4 | 0.00 | 0.03 | 0.03 | 73 | 1008.8 |
| 20260505182043 | 18 | 262 | 0.0 | 14.5 | 0.00 | 0.03 | 0.03 | 73 | 1008.8 |
| 20260505181543 | 18 | 256 | 0.0 | 14.5 | 0.00 | 0.03 | 0.03 | 75 | 1008.8 |
| 20260505181044 | 17 | 242 | 0.0 | 14.5 | 0.00 | 0.03 | 0.03 | 75 | 1008.9 |
| 20260505180542 | 17 | 301 | 0.0 | 8.0 | 0.00 | 0.03 | 0.03 | 75 | 1009.0 |
| 20260505180048 | 17 | 314 | 1.6 | 8.0 | 0.00 | 0.03 | 0.03 | 75 | 1009.0 |
| 20260505175542 | 17 | 283 | 1.6 | 12.9 | 0.00 | 0.03 | 0.03 | 75 | 1009.0 |
| 20260505175052 | 17 | 297 | 1.6 | 12.9 | 0.00 | 0.03 | 0.03 | 75 | 1008.9 |
| 20260505174541 | 17 | 266 | 0.0 | 12.9 | 0.00 | 0.03 | 0.03 | 75 | 1008.9 |
| 20260505174045 | 17 | 291 | 0.0 | 11.3 | 0.00 | 0.03 | 0.03 | 76 | 1008.8 |
| 20260505173541 | 17 | 291 | 0.0 | 12.9 | 0.00 | 0.03 | 0.03 | 76 | 1008.9 |
| 20260505173044 | 17 | 325 | 0.0 | 12.9 | 0.00 | 0.03 | 0.03 | 76 | 1009.0 |
| 20260505172541 | 17 | 325 | 0.0 | 12.9 | 0.00 | 0.03 | 0.03 | 75 | 1009.0 |
| 20260505172045 | 17 | 294 | 4.8 | 14.5 | 0.00 | 0.03 | 0.03 | 75 | 1009.0 |
| 20260505171543 | 17 | 259 | 0.0 | 14.5 | 0.00 | 0.03 | 0.03 | 75 | 1009.0 |
| 20260505171046 | 17 | 293 | 0.0 | 20.9 | 0.00 | 0.03 | 0.03 | 74 | 1009.0 |
| 20260505170541 | 17 | 308 | 1.6 | 24.1 | 0.00 | 0.03 | 0.03 | 74 | 1009.0 |
| 20260505170046 | 17 | 304 | 8.0 | 24.1 | 0.00 | 0.03 | 0.03 | 73 | 1009.0 |
| 20260505165542 | 17 | 308 | 4.8 | 24.1 | 0.00 | 0.03 | 0.03 | 73 | 1009.0 |
| 20260505165047 | 18 | 322 | 6.4 | 20.9 | 0.00 | 0.03 | 0.03 | 72 | 1009.0 |
| 20260505164543 | 18 | 294 | 9.7 | 20.9 | 0.00 | 0.03 | 0.03 | 71 | 1009.0 |
| 20260505164042 | 18 | 260 | 1.6 | 20.9 | 0.00 | 0.03 | 0.03 | 70 | 1009.0 |